Location: Ottawa
(45.4167°N, 75.7000°W)
Time: 22:25:34
(UTC-05:00)

N. Korean satellite - Pass Details

Date: 15 October 2017
Orbit: 461 x 513 km, 97.2° (Epoch: 17 December)

Event Time Altitude Azimuth Distance (km) Brightness Sun altitude
Rises 19:01:33 0° 167° (SSE) 2,539 10.1 -8.6°
Reaches altitude 10° 19:03:37 10° 168° (SSE) 1,655 9.2 -9.0°
Maximum altitude 19:07:10 86° 255° (WSW) 483 6.6 -9.6°
Drops below altitude 10° 19:10:42 10° 347° (NNW) 1,642 9.4 -10.2°
Sets 19:12:45 0° 348° (NNW) 2,517 10.3 -10.6°
